GPS BIIR-13

Last updated on Jan. 20, 2021, 6:21 a.m. UTC

1 28474U 04045A   21019.88477620 -.00000077  00000-0  00000-0 0  9998
2 28474  55.1072  44.1166 0205562 270.7095 271.2189  2.00572798118830
UTC
Height (km)
Latitude
Longitude
Inclination
Orbital Period
UTC large
Height (km)
Speed (km/s)
/
Latitude / Longitude
Inclination (degrees)
Orbital Period (minutes)
Azimuth
Elevation
Range (km)
Doppler Factor
iOS Compass Heading
iOS Angle

Next 30 passes for location: Hong Kong

Rise time Rise Azimuth (degrees) Set time Set Azimuth (degrees) Duration Max altitude (degrees)

No matching passes for this satellites